Cedar Point, IL (61316)

9:29 AM CST on January 24, 2017 (GMT -0600)
Baker Lake | | Change Station
Active Advisory: Flood Warning, Flood Advisory

Elev 652 ft 41.34 °N, 89.11 °W | Updated 3 minutes ago

Overcast
Overcast
36.2 °F
Feels Like 36 °F
N
2.0
Wind Variable Wind from West
Gusts 2.0 mph

Today
High -- | Low -- °F
--% Chance of Precip.
Yesterday
High -- | Low -- °F
Precip. -- in
Pressure 29.90 in
Visibility 5.0 miles
Clouds Overcast 1900 ft
Windchill 36 °F
Dew Point 34 °F
Humidity 92%
Rainfall 0.00 in
Snow Depth Not available.
7:14 AM 5:03 PM
Waning Crescent, 11% visible
METAR KVYS 241515Z AUTO 00000KT 5SM BR OVC019 01/00 A2990 RMK AO2 T00120000
Pressure 29.90 in
Visibility 5.0 miles
Clouds Overcast 1900 ft
Windchill 36 °F
Dew Point 34 °F
Humidity 92%
Rainfall 0.00 in
Snow Depth Not available.
7:14 AM 5:03 PM
Waning Crescent, 11% visible
METAR KVYS 241515Z AUTO 00000KT 5SM BR OVC019 01/00 A2990 RMK AO2 T00120000

Get Your Daily Forecast Email!

Thanks for signing up!

Be on the lookout for a verification email in your inbox.

You'll start receiving the daily forecast at 8 AM.

×

10-Day Weather Forecast

Almanac

Astronomy

Jan. 24, 2017 Rise Set
Actual Time
Civil Twilight
Nautical Twilight
Astronomical Twilight
Moon
Length of Visible Light
Length of Day
Tomorrow will be .
, % of the Moon is Illuminated

Today's Extremes

State Highs State Lows

Community

WunderPhotos

Upload Photos

1,962,540 photos uploaded!

WunderBlog® & News

Nearby

Air Quality

  Air Quality AQ Index Pollutant
Not available.

Snow Depth

Station Depth Elevation

Earthquake Activity

City Distance Mag. Time & Date
Minimum magnitude displayed is 2.5.

Coastal Water Temperatures

Place Temperature

Stations

Nearby Weather Stations

Station Location Temp. Windchill Dew Point Humidity Wind Precip. Elev Updated Type
                   

Watches & Warnings

Flood Warning
Issued: 9:08 PM CST Jan. 23, 2017 – National Weather Service

The Flood Warning continues for
the Illinois River at La Salle.
* Until Thursday morning.
* At 845 PM Monday the stage was 22.0 feet.
* Flood stage is 20.0 feet.
* Minor flooding is occurring and minor flooding is forecast.
* Forecast... the river will continue to fall to below flood stage by
Thursday morning.
* Impact... at 22.0 feet... Riverside parking lot at Starved Rock State
Park floods.


Lat... Lon 4137 8896 4135 8929 4126 8930 4128 8896





Flood Advisory
Issued: 9:10 PM CST Jan. 23, 2017 – National Weather Service

The Flood Advisory continues for
the Illinois River at Ottawa
* until Wednesday afternoon.
* At 830 PM Monday the stage was 461.7 feet.
* Action stage is 461.0 feet.
* Flood stage is 463.0 feet.
* Forecast... the river will continue to fall.


Lat... Lon 4135 8868 4137 8896 4128 8897 4127 8867